Terminal Aerodrome Forecast
Issued by NWS Huntsville, AL

Home | Current Version | Previous Version | Text Only | Print | Product List | Glossary On
Versions: 1 2 3 4 5 6 7 8 9 10 11 12 13 14 15 16 17 18 19 20 21 22 23 24 25 26 27 28 29 30
000
FTUS44 KHUN 220525
TAFMSL
TAF
KMSL 220525Z 2206/2306 VRB03KT P6SM BKN015
     FM221000 12007KT P6SM OVC015
     FM221500 13008KT 6SM -DZ OVC009
     FM222100 15010KT 5SM -RA BR OVC004
     FM230000 15011KT 2SM -RA BR OVC004=

USA.gov is the U.S. government's official web portal to all federal, state and local government web resources and services.